Valentine, NE

4:14 AM CDT on May 24, 2017 (GMT -0500)
Miller Field

Weather History for KVTN - February, 2014

Change the Weather History Date:

Friday, February 21, 2014

  Actual Average Record
Temperature  
Mean Temperature 32 °F 29 °F  
Max Temperature 45 °F 42 °F 76 °F (1995)
Min Temperature 19 °F 16 °F -15 °F (1894)
Degree Days  
Heating Degree Days 33 36  
Month to date heating degree days 930 811  
Since 1 July heating degree days 5130 4989  
Cooling Degree Days 0 0  
Month to date cooling degree days 0 0  
Year to date cooling degree days 0 0  
Moisture  
Dew Point 20 °F    
Average Humidity 58    
Maximum Humidity 84    
Minimum Humidity 31    
Precipitation  
Precipitation T in 0.02 in 0.30 in (2013)
Month to date precipitation 0.43 0.32  
Year to date precipitation 0.47 0.58  
Snow  
Snow T in 0.20 in 4.80 in (1993)
Month to date snowfall 4.3 4.0  
Since 1 July snowfall 23.8 20.5  
Snow Depth 1.00 in    
Sea Level Pressure  
Sea Level Pressure 29.82 in    
Wind  
Wind Speed 9 mph (WNW)    
Max Wind Speed 28 mph    
Max Gust Speed 36 mph    
Visibility 10 miles    
Events Snow    
T = Trace of Precipitation, MM = Missing Value Source: NWS Daily Summary

Daily Weather History Graph

Daily Weather History Graph

Search for Another Location

Airport or City:

Trip Planner

Search our weather history database for the weather conditions in past years. The results will help you decide how hot, cold, wet, or windy it might be!

Date:

Astronomy

Feb. 21, 2014 Rise Set
Actual Time 7:30 AM CST 6:21 PM CST
Civil Twilight 7:01 AM CST 6:50 PM CST
Nautical Twilight 6:28 AM CST 7:23 PM CST
Astronomical Twilight 5:56 AM CST 7:56 PM CST
Moon 12:26 AM CST (2/21) 10:46 AM CST (2/21)
Length of Visible Light 11h 48m
Length of Day
10h 51m
Waning Gibbous, 60% of the Moon is Illuminated
Feb 21
Waning Gibbous
Feb 22
Last Quarter
Mar 1
New
Mar 8
First Quarter
Mar 16
Full

Hourly Weather History & Observations

Time (CST) Temp. Windchill Dew Point Humidity Pressure Visibility Wind Dir Wind Speed Gust Speed Precip Events Conditions
12:52 AM 21.9 °F 12.5 °F 15.1 °F 75% 29.85 in 10.0 mi West 8.1 mph - N/A   Clear
1:52 AM 21.9 °F 14.5 °F 16.0 °F 78% 29.83 in 10.0 mi West 5.8 mph - N/A   Mostly Cloudy
2:52 AM 19.9 °F - 15.1 °F 81% 29.81 in 10.0 mi Calm Calm - N/A   Overcast
3:52 AM 21.9 °F - 16.0 °F 78% 29.79 in 10.0 mi Calm Calm - N/A   Overcast
4:52 AM 21.0 °F 12.4 °F 15.1 °F 78% 29.78 in 10.0 mi WSW 6.9 mph - N/A   Mostly Cloudy
5:52 AM 21.9 °F 14.5 °F 17.1 °F 82% 29.78 in 10.0 mi SSW 5.8 mph - N/A   Overcast
6:52 AM 25.0 °F 16.3 °F 18.0 °F 75% 29.78 in 10.0 mi WNW 8.1 mph - N/A   Scattered Clouds
7:52 AM 27.0 °F 18.7 °F 19.0 °F 72% 29.80 in 10.0 mi WNW 8.1 mph - N/A   Mostly Cloudy
8:52 AM 32.0 °F 24.8 °F 21.0 °F 64% 29.80 in 10.0 mi West 8.1 mph - N/A   Partly Cloudy
9:52 AM 36.0 °F 27.1 °F 21.9 °F 57% 29.80 in 10.0 mi WNW 13.8 mph - N/A   Mostly Cloudy
10:52 AM 39.0 °F 30.3 °F 21.9 °F 50% 29.80 in 10.0 mi WNW 16.1 mph 31.1 mph N/A   Scattered Clouds
11:52 AM 39.9 °F 30.0 °F 21.0 °F 47% 29.80 in 10.0 mi WNW 21.9 mph 35.7 mph N/A   Partly Cloudy
12:52 PM 42.1 °F 33.3 °F 19.9 °F 41% 29.79 in 10.0 mi NW 19.6 mph 31.1 mph N/A   Scattered Clouds
1:52 PM 42.1 °F 34.5 °F 21.0 °F 43% 29.78 in 10.0 mi NW 15.0 mph 21.9 mph N/A   Scattered Clouds
2:52 PM 44.1 °F 35.4 °F 16.0 °F 32% 29.78 in 10.0 mi NW 21.9 mph 29.9 mph N/A   Mostly Cloudy
3:52 PM 43.0 °F 35.7 °F 19.9 °F 40% 29.80 in 10.0 mi NW 15.0 mph 24.2 mph N/A   Clear
4:52 PM 43.0 °F 37.7 °F 19.9 °F 40% 29.80 in 10.0 mi WNW 9.2 mph - N/A   Partly Cloudy
5:52 PM 39.0 °F 33.4 °F 21.0 °F 49% 29.82 in 10.0 mi North 8.1 mph - N/A   Clear
6:52 PM 34.0 °F 31.0 °F 21.0 °F 59% 29.83 in 10.0 mi NE 3.5 mph - N/A   Clear
7:52 PM 27.0 °F - 21.0 °F 78% 29.87 in 10.0 mi Calm Calm - N/A   Clear
8:52 PM 28.9 °F 22.8 °F 21.0 °F 72% 29.89 in 10.0 mi WNW 5.8 mph - N/A   Partly Cloudy
9:52 PM 28.0 °F - 23.0 °F 81% 29.88 in 10.0 mi Calm Calm - N/A   Mostly Cloudy
10:52 PM 32.0 °F 24.2 °F 24.1 °F 73% 29.91 in 10.0 mi NW 9.2 mph - N/A   Overcast
11:16 PM 32.0 °F 24.2 °F 26.6 °F 80% 29.86 in 2.5 mi WNW 9.2 mph - 0.00 in Snow Light Snow
11:27 PM 30.2 °F 21.9 °F 26.6 °F 86% 29.87 in 5.0 mi WNW 9.2 mph - 0.00 in Snow Light Snow
11:52 PM 30.9 °F 24.3 °F 28.0 °F 89% 29.92 in 10.0 mi West 6.9 mph - 0.00 in   Overcast